Meadville, PA

3:18 AM EST on December 10, 2019 (GMT -0500)
Port Meadville

Weather History for KGKJ - October, 2019

Change the Weather History Date:

Wednesday, October 23, 2019

  Actual Average Record
Temperature  
Mean Temperature 48 °F -  
Max Temperature 55 °F 58 °F 80 °F (1979)
Min Temperature 41 °F 38 °F 24 °F (1969)
Degree Days  
Heating Degree Days 17    
Moisture  
Dew Point 32 °F    
Average Humidity 57    
Maximum Humidity 82    
Minimum Humidity 35    
Precipitation  
Precipitation 0.00 in - - ()
Sea Level Pressure  
Sea Level Pressure 30.01 in    
Wind  
Wind Speed 8 mph ()    
Max Wind Speed 22 mph    
Max Gust Speed 32 mph    
Visibility 10.0 miles    
Events      
Averages and records for this station are not official NWS values.
T = Trace of Precipitation, MM = Missing Value Source: Averaged Metar Reports

Daily Weather History Graph

Daily Weather History Graph

Search for Another Location

Airport or City:

Astronomy

Oct. 23, 2019 Rise Set
Actual Time 7:41 AM EDT 6:27 PM EDT
Civil Twilight 7:13 AM EDT 6:56 PM EDT
Nautical Twilight 6:41 AM EDT 7:28 PM EDT
Astronomical Twilight 6:08 AM EDT 8:00 PM EDT
Moon 1:52 AM EDT (10/23) 4:22 PM EDT (10/23)
Length of Visible Light 11h 42m
Length of Day
10h 46m
Waning Crescent, 27% of the Moon is Illuminated
Oct 23
Waning Crescent
Oct 27
New
Nov 4
First Quarter
Nov 12
Full
Nov 19
Last Quarter

Hourly Weather History & Observations

Time (EDT) Temp. Windchill Dew Point Humidity Pressure Visibility Wind Dir Wind Speed Gust Speed Precip Events Conditions
12:53 AM 48.9 °F - 36.0 °F 61% 29.86 in 10.0 mi SW 8.1 mph - N/A   Partly Cloudy
1:53 AM 46.9 °F - 36.0 °F 66% 29.86 in 10.0 mi SW 5.8 mph - N/A   Clear
2:53 AM 45.0 °F 41.8 °F 36.0 °F 71% 29.87 in 10.0 mi SSW 5.8 mph - N/A   Clear
3:53 AM 44.1 °F 39.5 °F 36.0 °F 73% 29.86 in 10.0 mi SW 8.1 mph - N/A   Clear
4:53 AM 43.0 °F 38.8 °F 36.0 °F 76% 29.88 in 10.0 mi SSW 6.9 mph - N/A   Clear
5:53 AM 42.1 °F 38.4 °F 36.0 °F 79% 29.91 in 10.0 mi SSW 5.8 mph - N/A   Clear
6:53 AM 42.1 °F 38.4 °F 36.0 °F 79% 29.93 in 10.0 mi South 5.8 mph - N/A   Clear
7:53 AM 41.0 °F 38.0 °F 36.0 °F 82% 29.94 in 10.0 mi SSW 4.6 mph - N/A   Clear
8:53 AM 43.0 °F 38.2 °F 37.0 °F 80% 29.96 in 10.0 mi SW 8.1 mph - N/A   Clear
9:53 AM 46.9 °F - 36.0 °F 66% 29.98 in 10.0 mi WSW 11.5 mph 18.4 mph N/A   Clear
10:53 AM 48.0 °F - 32.0 °F 54% 30.01 in 10.0 mi WSW 17.3 mph 28.8 mph N/A   Clear
11:53 AM 50.0 °F - 30.0 °F 46% 30.02 in 10.0 mi WSW 18.4 mph 32.2 mph N/A   Partly Cloudy
12:53 PM 52.0 °F - 28.0 °F 40% 30.03 in 10.0 mi West 21.9 mph 27.6 mph N/A   Partly Cloudy
1:53 PM 53.1 °F - 28.0 °F 38% 30.04 in 10.0 mi West 19.6 mph 29.9 mph N/A   Partly Cloudy
2:53 PM 54.0 °F - 27.0 °F 35% 30.04 in 10.0 mi West 15.0 mph 26.5 mph N/A   Clear
3:53 PM 55.0 °F - 28.0 °F 35% 30.06 in 10.0 mi West 20.7 mph 26.5 mph N/A   Clear
4:53 PM 55.0 °F - 28.0 °F 35% 30.07 in 10.0 mi West 16.1 mph 20.7 mph N/A   Clear
5:53 PM 53.1 °F - 28.0 °F 38% 30.09 in 10.0 mi SW 9.2 mph 17.3 mph N/A   Clear
6:53 PM 50.0 °F - 30.0 °F 46% 30.10 in 10.0 mi South 4.6 mph - N/A   Partly Cloudy
7:53 PM 48.9 °F - 30.0 °F 48% 30.12 in 10.0 mi South 6.9 mph - N/A   Clear
8:53 PM 46.9 °F - 30.9 °F 54% 30.13 in 10.0 mi South 4.6 mph - N/A   Clear
9:53 PM 46.0 °F 44.8 °F 30.9 °F 56% 30.13 in 10.0 mi Variable 3.5 mph - N/A   Clear
10:53 PM 46.0 °F 42.5 °F 30.9 °F 56% 30.15 in 10.0 mi South 6.9 mph - N/A   Clear
11:53 PM 46.0 °F 42.5 °F 30.9 °F 56% 30.15 in 10.0 mi South 6.9 mph - N/A   Clear